Orbital Elements at Epoch 2459200.5 (2020-Dec-17.0) TDB
Reference: JPL 28 (heliocentric ecliptic J2000)
Element | Value | Uncertainty (1-sigma) | Units |
e | .06665269099175761 | 2.7862e-08 | |
a | 2.151230133048123 | 5.0848e-09 | au |
q | 2.007844855737909 | 5.994e-08 | au |
i | 3.117037434500999 | 2.9749e-06 | deg |
node | 66.4372638610123 | 6.7061e-05 | deg |
peri | 244.6386584539782 | 7.3698e-05 | deg |
M | 63.93989949130412 | 3.0247e-05 | deg |
tp | 2458995.809265582295 (2020-May-26.30926558) | 9.6984e-05 | TDB |
period | 1152.467629393059 3.16 | 4.0861e-06 1.119e-08 | d yr |
n | .3123731988807286 | 1.1075e-09 | deg/d |
Q | 2.294615410358337 | 5.4237e-09 | au |
|
| | Orbit Determination Parameters
Additional Information
|